Date String (YYYY-MM-DD hh:mm:ss) UTC,Instrument flags,absolute air pressure of the measurement (hPa),sample flow rate (lpm),inlet stack bypass flow (lpm),air temperature of the measurement (°C),ambient temperature measured by the external sensor (°C),aerosol sample conditioner tube jacket temperature (°C),OPC LED temperature (°C),internal box temperature (°C),relative humidity of the measurement (%),span deviation,mass concentration of particles derived from Lorenz-Mie calculation of OPC scattering (μg/m³),mass concentration of particles derived from Lorenz-Mie calculation of OPC scattering (μg/m³),mass concentration of particles derived from Lorenz-Mie calculation of OPC scattering (μg/m³)
DateTimeUTC,F1_M11,P_M11,Q1_M11,Q2_M11,T1_M11,T2_M11,T3_M11,T4_M11,T5_M11,U1_M11,ZSPAN_M11,X0_M11,X2_M11,X1_M11
2023-06-24 15:00:00,SystemResetWarning,0830.1,5.01,000.00,029.9,025.0,000.0,038.3,031.4,12.1,0000.0,0014.37,0005.44,0003.98
2023-06-24 15:01:00,SystemResetWarning,0830.1,5.01,000.00,029.9,025.1,000.0,038.2,031.4,11.2,0000.0,0014.00,0005.38,0003.98
2023-06-24 15:02:00,SystemResetWarning,0830.1,5.01,000.00,029.8,025.5,000.0,038.2,031.1,12.0,0000.0,0013.26,0005.38,0003.98
2023-06-24 15:03:00,SystemResetWarning,0830.0,5.00,000.00,029.7,025.9,000.0,038.2,031.0,11.8,0000.0,0012.89,0005.39,0003.99
2023-06-24 15:04:00,SystemResetWarning,0830.1,5.00,000.00,029.7,026.3,000.0,038.2,031.0,11.4,0000.0,0012.45,0005.34,0003.99
2023-06-24 15:05:00,SystemResetWarning,0830.1,5.01,000.00,029.7,026.7,000.0,038.2,031.0,12.5,0000.0,0012.40,0005.30,0003.97
2023-06-24 15:06:00,SystemResetWarning,0830.1,4.99,000.00,029.7,027.0,000.0,038.2,031.1,14.0,0000.0,0012.75,0005.32,0003.98
2023-06-24 15:07:00,SystemResetWarning,0830.1,5.00,000.00,029.7,027.3,000.0,038.2,031.1,14.8,0000.0,0012.53,0005.31,0003.98
2023-06-24 15:08:00,SystemResetWarning,0830.1,5.00,000.00,029.7,027.5,000.0,038.2,031.1,12.8,0000.0,0012.04,0005.26,0003.98
2023-06-24 15:09:00,SystemResetWarning,0830.1,5.00,000.00,029.7,027.7,000.0,038.2,031.1,11.8,0000.0,0012.67,0005.22,0003.96
2023-06-24 15:10:00,SystemResetWarning,0830.2,5.00,000.00,029.7,027.9,000.0,038.2,031.2,11.9,0000.0,0012.42,0005.16,0003.94
2023-06-24 15:11:00,SystemResetWarning,0830.1,5.00,000.00,029.7,028.0,000.0,038.2,031.2,13.3,0000.0,0011.78,0005.13,0003.94
2023-06-24 15:12:00,SystemResetWarning,0830.0,5.00,000.00,029.7,028.1,000.0,038.3,031.2,12.2,0000.0,0011.97,0005.16,0003.94
2023-06-24 15:13:00,SystemResetWarning,0830.0,5.00,000.00,029.8,028.2,000.0,038.3,031.3,12.0,0000.0,0011.79,0005.13,0003.94
2023-06-24 15:14:00,SystemResetWarning,0830.0,4.99,000.00,029.8,028.3,000.0,038.3,031.3,12.0,0000.0,0011.39,0005.07,0003.92
2023-06-24 15:15:00,SystemResetWarning,0830.1,4.99,000.00,029.8,028.4,000.0,038.3,031.4,12.1,0000.0,0011.52,0005.09,0003.91
2023-06-24 15:16:00,SystemResetWarning,0830.0,4.99,000.00,029.9,028.0,000.0,038.3,031.5,10.7,0000.0,0011.79,0005.10,0003.91
2023-06-24 15:17:00,SystemResetWarning,0830.0,4.99,000.00,029.9,025.9,000.0,038.2,031.4,10.8,0000.0,0011.80,0005.06,0003.90
2023-06-24 15:18:00,SystemResetWarning,0830.0,5.00,000.00,029.8,024.8,000.0,038.2,031.3,11.7,0000.0,0011.76,0005.01,0003.88
2023-06-24 15:19:00,SystemResetWarning,0830.0,5.01,000.00,029.8,025.2,000.0,038.1,031.1,11.4,0000.0,0011.89,0005.01,0003.87
2023-06-24 15:20:00,SystemResetWarning,0830.0,5.00,000.00,029.7,025.6,000.0,038.1,030.9,11.4,0000.0,0011.28,0005.04,0003.87
2023-06-24 15:21:00,SystemResetWarning,0829.9,4.99,000.00,029.6,026.0,000.0,038.1,030.9,12.2,0000.0,0011.44,0005.04,0003.88
2023-06-24 15:22:00,SystemResetWarning,0829.9,4.99,000.00,029.6,026.4,000.0,038.1,030.9,11.7,0000.0,0011.60,0005.01,0003.90
2023-06-24 15:23:00,SystemResetWarning,0829.9,4.99,000.00,029.6,026.8,000.0,038.2,031.0,13.5,0000.0,0011.71,0004.97,0003.90
2023-06-24 15:24:00,SystemResetWarning,0829.9,5.00,000.00,029.6,027.1,000.0,038.2,031.0,13.6,0000.0,0012.36,0005.05,0003.91
2023-06-24 15:25:00,SystemResetWarning,0829.9,5.00,000.00,029.6,027.4,000.0,038.2,031.1,14.2,0000.0,0013.57,0005.10,0003.92
2023-06-24 15:26:00,SystemResetWarning,0830.0,5.00,000.00,029.6,027.6,000.0,038.2,031.1,12.7,0000.0,0013.68,0005.07,0003.93
2023-06-24 15:27:00,SystemResetWarning,0830.0,5.00,000.00,029.6,027.8,000.0,038.2,031.2,11.5,0000.0,0013.20,0005.09,0003.94
2023-06-24 15:28:00,SystemResetWarning,0830.0,5.00,000.00,029.7,027.9,000.0,038.2,031.2,10.8,0000.0,0013.01,0005.15,0003.94
2023-06-24 15:29:00,SystemResetWarning,0830.0,5.00,000.00,029.7,028.0,000.0,038.2,031.2,11.3,0000.0,0013.36,0005.18,0003.95
2023-06-24 15:30:00,SystemResetWarning,0830.0,5.00,000.00,029.7,028.2,000.0,038.2,031.2,11.2,0000.0,0013.48,0005.17,0003.95
2023-06-24 15:31:00,SystemResetWarning,0830.0,5.00,000.00,029.7,028.2,000.0,038.2,031.3,11.3,0000.0,0013.99,0005.13,0003.94
2023-06-24 15:32:00,SystemResetWarning,0830.0,4.99,000.00,029.8,027.9,000.0,038.2,031.4,11.6,0000.0,0014.33,0005.08,0003.93
2023-06-24 15:33:00,SystemResetWarning,0829.9,5.00,000.00,029.8,025.8,000.0,038.1,031.3,12.1,0000.0,0013.98,0005.08,0003.91
2023-06-24 15:34:00,SystemResetWarning,0830.0,5.00,000.00,029.7,024.8,000.0,038.1,031.2,13.2,0000.0,0014.18,0005.05,0003.91
2023-06-24 15:35:00,SystemResetWarning,0830.0,5.01,000.00,029.7,025.2,000.0,038.1,031.1,13.2,0000.0,0014.41,0005.03,0003.90
2023-06-24 15:36:00,SystemResetWarning,0829.9,5.01,000.00,029.6,025.6,000.0,038.1,030.9,13.9,0000.0,0013.79,0005.02,0003.89
2023-06-24 15:37:00,SystemResetWarning,0829.8,4.98,000.00,029.5,026.1,000.0,038.1,030.9,13.6,0000.0,0013.46,0005.07,0003.89
2023-06-24 15:38:00,SystemResetWarning,0829.8,4.99,000.00,029.5,026.4,000.0,038.1,030.9,12.3,0000.0,0013.71,0005.04,0003.89
2023-06-24 15:39:00,SystemResetWarning,0829.8,5.02,000.00,029.5,026.8,000.0,038.1,030.9,12.8,0000.0,0013.37,0005.02,0003.89
2023-06-24 15:40:00,SystemResetWarning,0830.0,5.00,000.00,029.5,027.1,000.0,038.1,031.0,13.1,0000.0,0013.15,0005.03,0003.88
2023-06-24 15:41:00,SystemResetWarning,0830.0,4.99,000.00,029.5,027.4,000.0,038.1,031.0,14.3,0000.0,0012.82,0005.01,0003.88
2023-06-24 15:42:00,SystemResetWarning,0830.0,5.00,000.00,029.6,027.6,000.0,038.1,031.0,13.7,0000.0,0012.39,0005.04,0003.89
2023-06-24 15:43:00,SystemResetWarning,0830.0,5.00,000.00,029.6,027.8,000.0,038.1,031.1,12.3,0000.0,0012.40,0005.07,0003.90
2023-06-24 15:44:00,SystemResetWarning,0830.0,5.01,000.00,029.6,027.9,000.0,038.1,031.1,13.2,0000.0,0012.37,0005.04,0003.90
2023-06-24 15:45:00,SystemResetWarning,0830.1,5.00,000.00,029.6,028.0,000.0,038.1,031.2,13.4,0000.0,0012.12,0005.10,0003.91
2023-06-24 15:46:00,SystemResetWarning,0830.0,4.98,000.00,029.7,028.1,000.0,038.1,031.2,13.2,0000.0,0011.43,0005.05,0003.91
2023-06-24 15:47:00,SystemResetWarning,0830.0,5.00,000.00,029.7,026.5,000.0,038.1,031.3,13.2,0000.0,0011.11,0005.03,0003.91
2023-06-24 15:48:00,SystemResetWarning,0830.1,5.00,000.00,029.6,024.7,000.0,038.0,031.2,12.6,0000.0,0011.16,0005.01,0003.90
2023-06-24 15:49:00,SystemResetWarning,0830.0,5.02,000.00,029.6,024.9,000.0,038.0,031.1,12.2,0000.0,0010.71,0004.99,0003.90
2023-06-24 15:50:00,SystemResetWarning,0830.0,5.00,000.00,029.5,025.3,000.0,038.0,030.8,12.1,0000.0,0010.72,0004.98,0003.89
2023-06-24 15:51:00,SystemResetWarning,0830.0,5.00,000.00,029.5,025.7,000.0,038.0,030.7,12.2,0000.0,0010.62,0004.94,0003.90
2023-06-24 15:52:00,SystemResetWarning,0830.0,5.00,000.00,029.4,026.1,000.0,038.0,030.8,11.1,0000.0,0010.88,0004.97,0003.90
2023-06-24 15:53:00,SystemResetWarning,0830.0,4.99,000.00,029.4,026.5,000.0,038.0,030.8,12.0,0000.0,0010.65,0004.93,0003.90
2023-06-24 15:54:00,SystemResetWarning,0830.0,4.99,000.00,029.4,026.8,000.0,038.0,030.9,11.5,0000.0,0010.21,0004.97,0003.91
2023-06-24 15:55:00,SystemResetWarning,0830.0,5.01,000.00,029.4,027.1,000.0,038.0,030.9,11.0,0000.0,0010.54,0005.06,0003.92
2023-06-24 15:56:00,SystemResetWarning,0830.0,5.00,000.00,029.4,027.3,000.0,038.0,030.9,11.0,0000.0,0010.45,0005.07,0003.92
2023-06-24 15:57:00,SystemResetWarning,0830.0,5.00,000.00,029.5,027.6,000.0,038.0,030.9,11.7,0000.0,0010.62,0005.11,0003.94
2023-06-24 15:58:00,SystemResetWarning,0830.0,5.00,000.00,029.5,027.7,000.0,038.0,031.0,11.8,0000.0,0010.91,0005.10,0003.94
2023-06-24 15:59:00,SystemResetWarning,0830.0,5.00,000.00,029.5,027.9,000.0,038.0,031.0,10.7,0000.0,0011.11,0005.06,0003.95
